map of AWZ home
AWZ - Airport
Location
City:  Ahwaz, Khuzestan, Iran
ICAO:OIAW
IATA:AWZ

Details
Type:Airport (Aerodrome, Airfield)
Use:Public/Civil
Latitude:3120'15"N (31.337431)
Longitude:4845'43"E (48.761950)
Datum:WGS 1984
Elevation:66 ft (20 m)
Variation:3.96E (WMM2015 magnetic declination)
0.06 annual change
Runways:1
Longest:11149 × 148 ft (3398 × 45 m), paved

Time
Time Zone:UTC+3:30 (DST+4:30)
Local Time:

Weather
METAR:OIAW 132100Z 30002KT 8000 NSC 12/10 Q1021
TAF:OIAW 131730Z 1318/1424 32004MPS 6000 FEW035
BECMG 1322/1324 4000 BR SCT030
TEMPO 1402/1406 1500 BR BKN015
BECMG 1406/1408 7000 FEW030 SCT100

Related Locations
Nearby:
Farthest:GMR: 11821 mi / 19024 km
Mangareva [Totegegie], Gambier Islands, PF

Find:

   beyond  
but within

Other Information
Maps:
NOTAMs:
Links:
Sources:

  
  • flag of Iran
  

Sectional Chart

Flight Planning
at skyvector.com

Satellite Image

Google Maps Satellite view

 

Copyright © 2004-2018 Karl L. Swartz. All rights reserved.
The Great Circle Mapper name and logo are trademarks of the Great Circle Mapper.
All other trademarks mentioned herein belong to their respective owners.
Please see credits for attibutions and further copyright information.

  Follow gcmap on Facebook Follow gcmap on Twitter Follow gcmap on Google+ GCmap on LinkedIn

hCard Microformat

Geo Microformat